Date String (YYYY-MM-DD hh:mm:ss) UTC,Instrument flags,absolute air pressure of the measurement (hPa),sample flow rate (lpm),inlet stack bypass flow (lpm),air temperature of the measurement (°C),ambient temperature measured by the external sensor (°C),aerosol sample conditioner tube jacket temperature (°C),OPC LED temperature (°C),internal box temperature (°C),relative humidity of the measurement (%),span deviation,mass concentration of particles derived from Lorenz-Mie calculation of OPC scattering (μg/m³),mass concentration of particles derived from Lorenz-Mie calculation of OPC scattering (μg/m³),mass concentration of particles derived from Lorenz-Mie calculation of OPC scattering (μg/m³)
DateTimeUTC,F1_M11,P_M11,Q1_M11,Q2_M11,T1_M11,T2_M11,T3_M11,T4_M11,T5_M11,U1_M11,ZSPAN_M11,X0_M11,X2_M11,X1_M11
2024-03-11 16:00:00,SystemResetWarning,0825.9,5.00,000.00,019.4,018.8,000.0,027.8,021.1,09.8,0000.0,0011.31,0003.99,0001.86
2024-03-11 16:01:00,SystemResetWarning,0825.9,5.00,000.00,019.4,018.8,000.0,027.8,021.1,09.9,0000.0,0011.35,0004.02,0001.89
2024-03-11 16:02:00,SystemResetWarning,0825.9,5.00,000.00,019.4,018.8,000.0,027.8,021.1,10.1,0000.0,0011.09,0004.05,0001.90
2024-03-11 16:03:00,SystemResetWarning,0825.9,5.00,000.00,019.4,018.8,000.0,027.8,021.1,10.0,0000.0,0011.06,0004.01,0001.89
2024-03-11 16:04:00,SystemResetWarning,0825.9,5.00,000.00,019.4,018.8,000.0,027.8,021.1,10.1,0000.0,0011.37,0003.97,0001.86
2024-03-11 16:05:00,SystemResetWarning,0826.0,5.00,000.00,019.4,018.8,000.0,027.8,021.1,10.0,0000.0,0011.20,0003.96,0001.86
2024-03-11 16:06:00,SystemResetWarning,0825.9,5.00,000.00,019.4,018.8,000.0,027.8,021.2,09.9,0000.0,0010.93,0003.89,0001.85
2024-03-11 16:07:00,SystemResetWarning,0825.9,5.00,000.00,019.4,018.8,000.0,027.8,021.2,10.1,0000.0,0010.83,0003.83,0001.83
2024-03-11 16:08:00,SystemResetWarning,0825.9,5.00,000.00,019.4,018.8,000.0,027.8,021.2,09.9,0000.0,0010.82,0003.78,0001.78
2024-03-11 16:09:00,SystemResetWarning,0825.9,5.00,000.00,019.4,018.8,000.0,027.8,021.1,10.0,0000.0,0010.95,0003.78,0001.75
2024-03-11 16:10:00,SystemResetWarning,0825.8,5.00,000.00,019.4,018.8,000.0,027.8,021.1,10.1,0000.0,0010.96,0003.78,0001.75
2024-03-11 16:11:00,SystemResetWarning,0825.9,5.00,000.00,019.4,018.8,000.0,027.8,021.2,10.1,0000.0,0011.09,0003.74,0001.74
2024-03-11 16:12:00,SystemResetWarning,0825.9,4.99,000.00,019.4,018.8,000.0,027.8,021.2,09.9,0000.0,0011.18,0003.76,0001.75
2024-03-11 16:13:00,SystemResetWarning,0826.0,4.99,000.00,019.4,018.8,000.0,027.8,021.1,09.8,0000.0,0011.20,0003.74,0001.74
2024-03-11 16:14:00,SystemResetWarning,0825.9,5.00,000.00,019.4,018.7,000.0,027.8,021.1,09.8,0000.0,0011.18,0003.73,0001.74
2024-03-11 16:15:00,SystemResetWarning,0826.0,5.00,000.00,019.4,018.7,000.0,027.8,021.1,09.9,0000.0,0010.89,0003.76,0001.74
2024-03-11 16:16:00,SystemResetWarning,0826.1,5.00,000.00,019.4,018.8,000.0,027.9,021.1,10.2,0000.0,0011.35,0003.77,0001.73
2024-03-11 16:17:00,SystemResetWarning,0826.0,5.00,000.00,019.5,018.8,000.0,027.9,021.1,08.9,0000.0,0011.90,0003.74,0001.71
2024-03-11 16:18:00,SystemResetWarning,0826.1,5.01,000.00,019.4,018.8,000.0,027.9,021.1,09.1,0000.0,0011.96,0003.72,0001.69
2024-03-11 16:19:00,SystemResetWarning,0826.2,4.99,000.00,019.4,018.8,000.0,027.9,021.1,09.5,0000.0,0011.93,0003.72,0001.70
2024-03-11 16:20:00,SystemResetWarning,0826.2,4.99,000.00,019.4,018.8,000.0,027.9,021.1,09.6,0000.0,0011.99,0003.71,0001.70
2024-03-11 16:21:00,SystemResetWarning,0826.2,5.00,000.00,019.5,018.8,000.0,027.9,021.1,09.9,0000.0,0011.86,0003.72,0001.69
2024-03-11 16:22:00,SystemResetWarning,0826.2,5.01,000.00,019.4,018.8,000.0,027.9,021.2,10.1,0000.0,0011.52,0003.68,0001.67
2024-03-11 16:23:00,SystemResetWarning,0826.2,5.01,000.00,019.4,018.8,000.0,027.9,021.1,10.3,0000.0,0011.37,0003.64,0001.64
2024-03-11 16:24:00,SystemResetWarning,0826.1,4.99,000.00,019.4,018.8,000.0,027.9,021.1,10.7,0000.0,0011.78,0003.68,0001.62
2024-03-11 16:25:00,SystemResetWarning,0826.1,5.00,000.00,019.4,018.8,000.0,027.9,021.2,10.8,0000.0,0011.60,0003.67,0001.62
2024-03-11 16:26:00,SystemResetWarning,0826.1,5.00,000.00,019.4,018.8,000.0,027.9,021.2,11.1,0000.0,0011.88,0003.61,0001.60
2024-03-11 16:27:00,SystemResetWarning,0826.1,5.01,000.00,019.4,018.8,000.0,027.9,021.2,12.0,0000.0,0011.72,0003.57,0001.58
2024-03-11 16:28:00,SystemResetWarning,0826.2,5.00,000.00,019.4,018.8,000.0,027.9,021.2,11.4,0000.0,0011.80,0003.53,0001.56
2024-03-11 16:29:00,SystemResetWarning,0826.2,5.00,000.00,019.5,018.8,000.0,027.9,021.2,11.2,0000.0,0011.65,0003.54,0001.55
2024-03-11 16:30:00,SystemResetWarning,0826.2,4.99,000.00,019.5,018.8,000.0,027.9,021.2,10.8,0000.0,0011.55,0003.50,0001.55
2024-03-11 16:31:00,SystemResetWarning,0826.2,5.00,000.00,019.5,018.8,000.0,027.9,021.2,11.2,0000.0,0011.10,0003.48,0001.54
2024-03-11 16:32:00,SystemResetWarning,0826.2,4.99,000.00,019.5,018.8,000.0,027.9,021.2,11.5,0000.0,0011.31,0003.44,0001.52
2024-03-11 16:33:00,SystemResetWarning,0826.2,5.00,000.00,019.5,018.8,000.0,027.9,021.2,11.5,0000.0,0012.04,0003.44,0001.51
2024-03-11 16:34:00,SystemResetWarning,0826.2,5.01,000.00,019.5,018.8,000.0,027.9,021.2,11.2,0000.0,0013.05,0003.40,0001.51
2024-03-11 16:35:00,SystemResetWarning,0826.2,5.01,000.00,019.5,018.9,000.0,027.9,021.2,10.8,0000.0,0012.84,0003.35,0001.50
2024-03-11 16:36:00,SystemResetWarning,0826.2,4.99,000.00,019.5,018.9,000.0,027.9,021.2,10.9,0000.0,0012.73,0003.32,0001.50
2024-03-11 16:37:00,SystemResetWarning,0826.2,5.00,000.00,019.5,018.9,000.0,027.9,021.2,10.6,0000.0,0012.18,0003.35,0001.50
2024-03-11 16:38:00,SystemResetWarning,0826.2,4.99,000.00,019.5,018.9,000.0,027.9,021.2,10.4,0000.0,0011.97,0003.35,0001.50
2024-03-11 16:39:00,SystemResetWarning,0826.1,5.01,000.00,019.5,018.9,000.0,027.9,021.2,10.2,0000.0,0011.88,0003.35,0001.51
2024-03-11 16:40:00,SystemResetWarning,0826.0,5.00,000.00,019.5,018.9,000.0,027.9,021.2,10.3,0000.0,0011.87,0003.34,0001.50
2024-03-11 16:41:00,SystemResetWarning,0826.0,5.01,000.00,019.5,018.9,000.0,027.9,021.3,10.1,0000.0,0011.90,0003.35,0001.47
2024-03-11 16:42:00,SystemResetWarning,0826.0,5.00,000.00,019.5,018.9,000.0,027.9,021.2,10.3,0000.0,0013.01,0003.36,0001.47
2024-03-11 16:43:00,SystemResetWarning,0826.0,5.00,000.00,019.5,018.9,000.0,027.9,021.3,10.3,0000.0,0013.24,0003.38,0001.48
2024-03-11 16:44:00,SystemResetWarning,0826.1,4.99,000.00,019.5,018.9,000.0,027.9,021.3,10.0,0000.0,0013.25,0003.36,0001.49
2024-03-11 16:45:00,SystemResetWarning,0826.0,4.99,000.00,019.5,018.9,000.0,027.9,021.3,09.8,0000.0,0012.22,0003.41,0001.51
2024-03-11 16:46:00,SystemResetWarning,0826.0,5.01,000.00,019.5,018.9,000.0,027.9,021.3,09.9,0000.0,0011.54,0003.44,0001.54
2024-03-11 16:47:00,SystemResetWarning,0826.1,5.00,000.00,019.6,018.9,000.0,027.9,021.3,09.9,0000.0,0011.88,0003.46,0001.57
2024-03-11 16:48:00,SystemResetWarning,0826.0,5.01,000.00,019.6,018.9,000.0,027.9,021.3,10.2,0000.0,0012.88,0003.47,0001.58
2024-03-11 16:49:00,SystemResetWarning,0826.0,5.00,000.00,019.6,018.9,000.0,027.9,021.3,10.2,0000.0,0013.23,0003.49,0001.59
2024-03-11 16:50:00,SystemResetWarning,0826.0,5.00,000.00,019.6,018.9,000.0,027.9,021.3,10.3,0000.0,0013.56,0003.57,0001.61
2024-03-11 16:51:00,SystemResetWarning,0826.0,5.00,000.00,019.6,018.9,000.0,027.9,021.3,10.4,0000.0,0013.49,0003.64,0001.62
2024-03-11 16:52:00,SystemResetWarning,0826.0,4.99,000.00,019.6,018.9,000.0,027.9,021.3,10.4,0000.0,0014.05,0003.68,0001.64
2024-03-11 16:53:00,SystemResetWarning,0826.0,4.99,000.00,019.6,018.9,000.0,028.0,021.3,10.3,0000.0,0013.35,0003.68,0001.65
2024-03-11 16:54:00,SystemResetWarning,0826.1,5.01,000.00,019.6,018.9,000.0,028.0,021.3,10.2,0000.0,0013.44,0003.69,0001.67
2024-03-11 16:55:00,SystemResetWarning,0826.1,5.01,000.00,019.6,018.9,000.0,028.0,021.3,10.0,0000.0,0012.93,0003.72,0001.67
2024-03-11 16:56:00,SystemResetWarning,0826.2,5.00,000.00,019.6,018.9,000.0,028.0,021.3,10.0,0000.0,0012.92,0003.72,0001.65
2024-03-11 16:57:00,SystemResetWarning,0826.2,4.99,000.00,019.6,019.0,000.0,028.0,021.3,10.2,0000.0,0013.07,0003.74,0001.63
2024-03-11 16:58:00,SystemResetWarning,0826.1,4.99,000.00,019.6,019.0,000.0,028.0,021.3,10.0,0000.0,0013.07,0003.72,0001.60
2024-03-11 16:59:00,SystemResetWarning,0825.9,5.00,000.00,019.6,018.9,000.0,028.0,021.3,09.4,0000.0,0011.93,0003.69,0001.57
